Вернуться в каталог

DELTA 1 DEB

АктивенPO
NORAD 21515·DEBRIS·🇺🇸 United States

Запущен Jun 12, 1975 с Vandenberg Space Force Base

Loading…

Ближайшие Пролёты (ближайшие 24 часа)

TLE

СвежийSource: Space-Track

Эпоха: Sep 14, 2026, 09:21 UTC

1 21515U 75052GL  26257.38969218 -.00000448  00000-0 -11680-2 0  9997
2 21515  99.6956 297.2863 0273556  30.9706  86.1065 12.98811167674265

Отслеживайте DELTA 1 DEB в реальном времени с AllMySat

Download on the App Store